Lapse_Rate
5.6 6.5 6.5 6.5 6.5 6.5 6.5 6.5 6.5 6.5 6.5 6.5 6.5 6.5 6.5 5.7 5.2 4.9 4.4 4.9 5.2 5.3 4.9 5.3 5.2 5.6 4.8 3.3 2.8 2.7 2.0 1.3 1.5 1.2 0.8 0.5 1.1 0.8 0.7 1.5 2.2 2.6 3.0 2.9
6.5 6.5 6.5 6.5 6.5 6.5 6.5 6.5 6.5 6.5 6.5 6.5 6.5 6.5 6.5 6.4 6.1 5.6 5.2 4.6 5.3 4.8 5.5 5.5 5.1 5.0 4.5 3.3 3.2 2.6 2.8 1.5 1.8 1.9 0.2 0.7 0.2 0.3 0.8 1.7 2.4 3.1 3.3 2.9
6.5 6.5 6.5 6.5 6.5 6.5 6.5 6.5 6.5 6.5 6.5 6.5 6.5 6.5 6.5 6.5 6.1 5.9 5.9 4.9 5.1 4.6 5.0 5.7 5.1 4.5 3.7 2.8 2.1 1.9 1.8 1.3 1.2 1.4 0.9 -0.1 0.2 0.7 1.0 0.7 0.9 2.0 2.9 2.9
6.5 6.4 6.5 6.5 6.5 6.5 6.5 6.5 6.5 6.5 6.5 6.5 6.5 6.5 6.5 6.5 6.5 6.5 6.2 5.5 5.0 5.3 5.4 4.5 4.7 4.2 3.1 3.0 2.4 1.9 1.6 1.4 1.3 1.3 1.5 1.1 0.8 0.8 0.2 0.2 0.3 1.2 2.9 3.3
6.5 6.5 6.5 6.5 6.5 6.5 6.5 6.5 6.5 6.5 6.5 6.5 6.5 6.5 6.5 6.5 6.5 6.5 6.2 5.7 5.3 4.3 4.3 4.9 4.3 3.2 2.9 2.8 1.6 1.2 1.8 1.6 2.0 2.1 2.1 1.2 1.3 1.0 0.2 0.2 1.1 1.4 2.3 3.0
6.5 6.1 6.5 6.5 6.5 6.5 6.5 6.5 6.5 6.5 6.5 6.5 6.5 6.5 6.5 6.5 6.5 6.5 6.2 6.1 5.5 4.0 5.1 4.6 4.3 4.2 3.3 1.2 1.2 1.0 1.6 2.1 2.7 2.6 1.9 1.1 1.4 0.9 0.9 0.7 1.2 1.4 1.3 1.6
6.5 6.5 6.5 6.4 6.5 6.5 6.5 6.5 6.5 6.5 6.5 6.5 6.5 6.5 6.5 6.5 6.5 6.5 6.4 5.9 3.8 3.5 4.5 4.5 4.4 3.6 2.7 1.6 1.5 1.7 1.7 1.9 1.6 2.5 2.5 2.3 1.6 1.5 1.7 1.8 1.8 0.8 1.1 1.6
6.5 6.5 6.5 6.5 6.5 6.5 6.5 6.5 6.5 6.5 6.5 6.5 6.5 6.5 6.5 6.5 5.3 6.0 3.7 2.9 2.9 2.9 3.1 2.5 2.9 2.5 1.9 1.6 1.8 2.0 1.8 2.1 1.2 2.2 3.2 3.0 1.8 2.0 1.9 1.6 1.1 0.8 1.2 1.6
6.5 6.5 6.5 6.5 6.5 6.5 6.5 6.5 6.5 6.5 6.5 6.5 6.5 6.5 6.5 6.5 6.5 5.9 4.8 3.8 2.9 1.1 2.0 1.9 2.0 1.9 1.2 1.4 1.6 1.4 1.8 1.7 2.7 2.8 3.4 1.6 1.4 1.1 0.9 0.8 1.4 1.1 1.6 2.5
6.5 6.5 6.5 6.5 6.4 6.3 6.5 6.5 6.5 6.5 6.5 6.5 6.5 6.5 6.5 6.5 6.5 6.5 6.4 4.3 2.0 0.8 0.8 2.0 1.8 1.4 1.2 1.5 1.3 1.1 1.5 1.8 2.2 1.8 1.5 1.5 1.4 1.5 1.9 1.7 1.5 1.4 1.8 0.9
6.5 6.5 6.5 6.5 6.5 6.5 6.5 6.5 6.5 6.5 6.5 6.5 6.5 6.5 6.5 6.5 6.5 6.5 6.2 3.9 2.5 1.0 0.8 0.8 0.8 0.9 1.2 1.1 1.0 0.9 1.0 1.3 1.2 1.4 1.2 1.0 1.7 2.0 1.9 1.4 1.7 1.6 2.2 3.4
6.5 6.5 6.5 6.5 6.5 6.5 6.5 6.5 6.5 6.5 6.5 6.5 6.5 6.5 6.5 6.5 6.5 5.7 4.0 3.0 0.8 0.7 -0.2 0.1 0.3 0.5 0.8 0.8 0.6 1.1 1.4 1.5 1.2 0.7 0.9 0.6 2.0 1.4 1.5 2.2 2.4 2.2 2.6 3.5
6.5 6.5 6.5 6.5 6.5 6.5 6.5 6.5 6.5 6.5 6.5 6.5 6.5 6.5 6.5 6.3 6.3 3.9 3.8 2.0 1.5 1.2 0.9 0.4 0.2 0.3 0.5 0.9 1.2 1.0 0.8 0.6 0.2 0.4 0.3 1.5 1.8 1.8 2.2 2.2 2.7 2.5 3.8 4.6
4.9 6.5 6.5 6.5 6.5 6.5 6.5 6.5 6.5 6.5 6.5 6.5 6.5 6.5 6.5 6.5 6.5 5.5 3.3 1.4 1.6 1.7 1.5 0.3 0.6 0.5 1.0 1.3 0.2 -0.6 -0.2 0.1 0.6 0.9 1.8 2.0 2.3 2.2 2.9 3.3 3.2 3.2 3.6 4.5
6.5 6.5 6.5 6.5 6.5 6.5 6.5 6.5 6.5 6.5 6.5 6.5 6.5 6.5 6.5 6.5 6.5 5.3 3.4 4.7 3.8 1.8 2.4 2.0 1.5 0.8 0.5 0.6 -0.6 -1.1 -0.2 0.5 0.7 2.1 2.1 2.4 3.2 3.6 3.3 2.7 3.1 3.8 5.4 6.0
6.5 6.5 6.5 6.5 6.5 6.5 6.5 6.5 6.5 6.5 6.5 6.5 6.5 6.5 6.5 6.1 5.3 4.4 4.2 3.3 3.1 2.9 3.2 2.2 1.5 0.9 0.8 1.1 0.1 -1.1 0.8 1.4 2.2 2.4 3.0 3.2 3.2 3.3 3.9 4.3 4.2 4.7 6.2 7.2
6.5 6.5 6.5 6.5 6.5 6.5 6.5 6.5 6.5 6.5 6.5 6.5 6.5 6.5 6.5 6.5 6.3 5.4 4.2 3.2 2.9 2.4 1.9 1.5 1.6 1.4 0.9 0.4 0.1 0.2 1.0 1.8 2.0 2.4 3.4 3.7 3.8 3.8 4.2 5.0 5.5 7.0 6.9 5.0
6.5 6.5 6.5 6.5 6.5 6.5 6.5 6.5 6.5 6.5 6.5 6.5 6.5 6.5 6.3 6.0 5.1 3.6 2.9 3.3 1.8 0.7 -0.3 -0.9 -0.8 -1.2 -1.5 -1.0 -0.5 0.1 1.0 1.8 2.8 3.5 3.2 3.1 3.6 4.7 6.2 6.9 6.7 5.0 4.8 5.4
6.5 6.5 6.5 6.5 6.5 6.5 6.5 6.5 6.5 6.5 6.5 6.5 6.5 6.5 5.7 5.0 4.0 4.5 1.5 -0.3 -0.9 -1.5 -2.2 -2.7 -2.4 -1.9 -1.5 -0.5 0.3 0.9 1.2 2.3 2.7 2.8 3.8 5.1 5.9 6.6 6.6 5.3 4.3 4.2 5.3 4.8
6.5 6.5 6.5 6.5 6.5 6.5 6.5 6.5 5.2 6.4 6.5 6.3 6.0 6.4 5.9 5.7 6.5 6.5 2.0 0.0 -1.8 -2.4 -2.2 -2.1 -2.0 -1.7 -0.9 0.1 1.0 0.7 1.5 2.2 3.3 5.3 5.9 6.5 6.6 5.7 4.7 3.6 4.6 4.1 4.0 4.0
6.5 6.5 6.5 6.5 6.5 6.5 6.5 6.3 5.2 6.5 6.5 4.4 4.3 4.2 4.4 6.5 4.5 1.2 0.6 -0.7 -1.4 -1.5 -1.2 -0.8 -0.3 -0.4 0.3 1.6 2.2 2.2 4.0 4.7 6.2 6.5 5.8 5.4 4.8 4.9 5.1 4.5 3.9 3.4 2.8 2.2
6.5 6.5 6.5 6.5 6.5 6.5 5.6 6.2 6.5 5.9 4.5 3.4 3.4 3.3 2.2 1.4 1.8 1.1 0.8 0.3 0.5 0.4 1.4 2.2 2.1 2.8 3.5 3.9 4.1 4.4 4.5 5.1 4.9 5.4 5.7 5.3 4.8 4.4 4.5 3.4 2.6 2.5 2.3 2.1
6.5 6.5 6.5 6.5 6.5 6.2 5.2 5.8 3.1 2.3 3.0 3.9 2.8 2.2 0.6 1.2 1.6 1.4 1.3 1.8 2.2 2.1 2.2 3.1 3.0 3.9 4.4 4.5 4.6 4.0 4.0 4.4 4.6 4.8 4.5 4.2 3.9 3.6 3.3 2.8 2.5 2.3 2.3 1.6
6.5 6.2 6.5 6.5 6.5 6.5 5.6 2.8 1.5 1.7 1.2 1.8 2.2 1.6 0.8 -0.0 1.6 1.9 2.7 3.1 2.9 2.7 3.3 4.3 4.2 4.1 4.4 4.9 5.0 5.0 5.1 5.0 4.7 4.4 4.1 3.5 3.3 3.2 3.0 2.8 2.7 2.4 1.8 1.7
6.4 6.3 6.5 6.5 6.5 6.1 5.0 2.7 1.2 0.4 0.2 0.1 0.9 1.0 0.1 0.0 2.7 3.0 3.6 3.8 4.2 4.6 5.0 5.2 5.1 5.5 5.9 5.8 4.8 3.6 3.3 3.5 3.7 3.5 3.5 3.4 3.3 3.2 3.3 3.2 3.5 3.8 3.4 3.9
5.7 6.5 6.5 6.5 5.9 5.3 5.1 3.4 2.5 1.3 1.0 0.6 -0.2 1.2 2.4 2.2 2.8 3.4 4.0 4.6 5.3 5.4 5.8 5.5 5.3 4.9 4.1 3.1 2.8 2.8 2.8 2.4 2.6 3.1 2.9 2.3 2.2 2.4 3.2 3.5 3.4 4.3 4.2 4.5
Wind_Speed
2 3 2 5 5 6 3 5 4 3 4 3 7 6 8 9 6 7 8 12 15 17 17 17 14 12 8 7 7 9 10 8 9 5 5 3 3 3 2 7 13 15 16 16
4 3 6 5 2 4 0 4 6 6 5 5 4 10 4 7 7 13 14 10 12 14 14 15 13 12 13 12 12 9 11 12 9 7 3 3 3 2 2 6 10 15 16 17
5 4 2 3 4 1 1 2 5 6 5 2 4 5 3 5 5 8 10 14 12 18 19 18 17 17 14 15 16 15 15 14 10 8 5 4 4 4 2 2 3 8 15 17
4 2 3 2 2 4 3 3 8 3 2 4 1 3 4 6 14 11 14 12 15 15 17 18 18 18 18 19 14 14 13 12 9 10 7 7 5 4 4 4 3 6 14 13
8 5 5 4 5 4 6 3 3 3 2 2 2 3 6 4 9 15 17 15 17 17 18 19 20 22 17 12 11 10 10 11 10 10 9 6 5 3 2 3 6 4 4 7
5 1 2 5 1 4 2 1 4 3 1 2 2 5 5 4 10 17 15 19 16 15 17 17 15 12 12 9 10 11 13 15 12 12 9 9 8 7 4 4 4 4 3 4
2 1 3 2 2 3 6 5 3 4 4 5 3 2 8 7 7 8 14 18 15 14 15 14 16 14 14 16 15 13 14 14 11 11 9 8 8 8 8 8 6 7 4 3
5 4 4 1 3 5 2 5 4 4 2 4 3 4 6 5 9 1 7 8 8 11 14 16 18 16 16 18 17 15 15 11 10 10 11 8 7 6 5 5 7 7 6 7
4 3 3 3 1 4 1 0 2 6 3 3 3 7 10 7 4 6 2 6 8 9 11 17 16 15 14 15 17 16 13 11 11 12 9 7 7 8 6 8 9 7 9 6
7 2 2 4 3 6 4 5 1 2 3 2 4 4 5 6 5 4 6 6 7 4 7 8 12 13 12 12 13 12 12 15 11 9 8 7 7 8 10 9 9 11 7 11
6 5 2 1 6 7 2 1 1 4 4 4 1 5 6 7 6 6 6 7 8 8 8 9 9 11 12 11 11 13 12 11 9 10 9 10 10 11 11 10 11 12 12 8
7 6 4 9 2 2 2 5 5 4 4 1 4 6 4 8 9 5 9 6 6 6 10 11 11 12 11 12 12 13 12 11 11 10 10 12 12 11 12 13 13 10 6 8
8 1 3 6 5 4 4 5 4 4 4 6 5 6 3 5 6 9 9 8 7 8 6 5 6 11 13 14 12 10 9 8 9 10 10 10 11 10 10 11 11 8 7 7
9 5 8 8 8 4 4 5 5 6 3 4 6 6 6 8 5 8 8 9 7 7 7 6 5 7 6 6 7 6 6 6 8 9 10 10 10 9 9 8 7 7 7 6
5 6 5 5 4 5 4 3 7 5 5 6 6 7 7 6 8 7 6 4 2 6 7 7 6 6 5 5 6 7 7 8 10 11 10 8 6 7 8 8 7 7 5 5
1 3 3 2 3 2 4 7 6 6 4 6 5 5 3 2 3 7 7 7 7 5 3 7 7 8 7 6 5 7 9 8 9 9 7 8 8 9 8 6 6 6 5 2
6 6 4 4 2 3 5 8 7 6 4 6 6 8 4 4 6 4 5 6 7 7 7 7 2 2 5 7 10 10 10 9 8 10 9 9 8 8 8 7 6 5 1 4
7 6 3 3 2 2 6 4 5 5 2 4 4 5 5 5 4 5 5 4 7 7 8 8 6 7 7 8 10 10 10 11 11 11 11 11 11 9 5 5 3 2 3 4
2 6 3 5 4 5 1 3 7 6 3 2 6 7 6 6 4 7 8 9 8 7 7 7 7 9 10 11 11 14 13 12 13 12 12 9 7 6 4 2 2 4 4 4
6 6 5 3 5 7 8 4 5 5 2 6 5 7 8 3 3 3 5 6 9 9 8 8 10 11 13 10 12 15 13 13 13 9 7 5 4 2 1 4 5 4 3 5
3 3 5 3 3 7 7 5 5 6 8 8 7 6 6 5 2 6 8 9 9 9 10 10 12 12 12 12 14 15 13 10 7 5 4 2 1 2 3 2 2 3 5 5
7 7 4 3 3 6 5 4 8 6 3 6 6 5 7 10 9 10 9 8 9 10 10 10 11 10 7 7 10 9 9 5 4 3 2 2 2 3 3 4 4 5 5 6
2 6 6 8 6 2 3 4 1 3 9 5 7 6 13 12 8 9 9 8 7 7 6 7 10 10 9 8 8 8 4 5 5 4 3 3 5 5 5 4 6 4 5 4
2 3 4 4 2 1 3 4 5 4 6 6 6 12 9 13 12 11 10 8 7 6 8 8 9 10 9 7 7 5 4 3 3 3 4 4 4 5 5 4 4 4 4 4
4 6 6 2 1 4 5 4 6 9 10 12 11 9 14 16 12 12 10 8 7 8 8 7 7 7 7 7 8 7 6 6 5 5 5 5 4 5 6 5 6 6 6 7
4 7 6 5 12 5 5 7 7 11 9 10 15 12 10 13 14 13 10 7 8 8 7 8 8 8 7 7 7 7 7 6 6 5 5 4 4 5 5 6 8 8 12 17
Wind_Direction
28 74 193 230 182 216 262 268 277 323 284 182 210 241 200 179 161 165 171 184 187 193 196 196 194 193 160 145 152 162 154 158 150 144 139 132 154 149 154 167 158 157 154 151
30 240 230 192 283 354 30 335 320 299 296 195 171 231 211 184 184 186 188 195 197 193 188 188 185 182 178 170 169 167 177 169 174 163 137 141 139 162 137 172 171 168 167 161
169 245 147 261 118 342 337 213 255 242 328 27 116 325 168 206 212 204 210 204 195 187 188 189 184 186 181 180 179 180 183 181 176 159 127 90 89 80 134 183 181 187 178 176
233 278 140 228 200 178 332 270 273 293 42 221 100 266 274 204 208 204 204 193 200 197 195 187 186 189 191 197 183 185 181 179 181 168 165 161 173 169 191 177 167 181 186 181
241 166 191 230 235 129 232 284 304 230 219 11 331 99 262 145 213 219 213 205 200 199 193 195 191 197 197 179 178 184 178 180 180 184 184 179 171 164 130 136 162 168 139 127
222 268 162 223 228 178 265 166 61 56 96 22 247 139 283 195 207 221 217 211 199 196 200 202 202 182 187 171 178 182 184 191 191 188 194 184 181 167 147 152 160 153 125 111
51 268 289 205 119 350 66 52 349 352 11 225 351 26 238 268 272 221 209 204 198 183 187 185 187 184 178 186 190 188 190 199 194 189 196 196 186 178 174 171 171 136 128 119
145 322 193 263 163 169 154 143 161 227 212 282 0 255 259 262 274 14 182 189 179 172 180 182 185 187 185 189 196 190 195 200 189 198 204 198 178 179 178 165 150 154 146 135
142 248 331 269 248 137 152 344 188 102 19 55 258 296 314 329 22 56 124 158 184 180 182 181 183 186 186 187 197 192 192 199 201 199 197 189 172 155 159 152 146 131 127 129
205 152 193 298 31 287 167 159 99 1 158 230 286 287 247 311 304 316 143 215 233 219 170 174 182 185 183 190 192 188 194 197 195 178 170 165 147 141 138 129 117 117 110 121
138 121 254 165 200 210 157 215 92 129 137 166 210 264 218 246 261 270 281 192 196 196 182 176 179 186 183 179 184 191 195 188 166 159 152 145 139 139 137 125 121 129 143 161
198 137 172 210 212 164 205 180 134 121 233 176 153 268 252 240 250 259 252 216 216 197 186 183 182 177 177 185 188 194 197 187 173 164 161 161 147 137 127 133 144 148 156 186
179 180 90 345 5 17 230 207 169 120 83 202 146 255 280 266 237 227 240 255 203 207 210 193 175 190 192 195 190 188 179 164 155 155 142 138 135 132 141 147 154 169 168 164
114 144 157 186 207 171 192 202 174 144 129 194 222 262 275 254 306 302 266 253 229 207 205 209 212 209 195 172 169 164 132 134 143 141 141 138 144 138 151 162 170 158 149 153
135 165 161 218 190 187 214 215 165 173 203 164 244 205 262 282 276 278 263 201 196 209 184 193 193 208 195 145 121 110 110 129 138 138 138 141 146 139 140 133 144 124 139 160
198 181 121 89 7 202 198 220 201 207 196 258 253 242 235 313 21 33 44 88 69 63 60 211 193 187 183 152 115 116 121 122 131 132 121 109 110 115 124 139 133 116 125 160
136 132 108 220 4 15 328 224 212 221 195 177 196 221 148 65 70 45 52 63 66 46 35 42 57 96 114 130 136 135 132 127 121 108 109 111 106 94 89 92 80 74 104 242
135 109 87 158 48 318 247 309 214 153 299 242 143 131 126 130 103 56 21 91 65 47 38 32 48 62 62 87 97 104 105 102 100 98 97 95 99 98 96 99 112 244 281 276
99 117 99 138 190 293 332 211 160 154 235 299 134 128 145 149 81 28 24 29 54 48 43 47 53 73 78 82 94 92 85 90 90 89 94 104 110 113 138 192 263 262 250 255
65 61 118 146 151 208 230 229 157 122 246 200 166 167 166 131 95 250 49 34 52 51 46 58 64 73 74 73 88 87 85 87 90 102 112 107 92 87 248 243 243 245 244 253
71 29 158 129 192 284 245 217 149 151 235 166 166 162 145 161 202 118 85 63 61 64 66 67 68 72 74 81 86 86 91 96 107 90 65 29 259 239 234 236 260 276 277 283
159 149 182 86 82 274 180 114 169 206 64 126 135 129 103 110 100 95 87 77 70 70 71 75 83 76 68 71 98 104 103 99 84 78 71 55 25 326 306 291 291 289 283 280
189 185 177 177 206 254 286 240 128 156 136 148 132 124 132 123 111 107 100 92 83 75 68 71 81 75 62 61 76 81 64 67 55 43 8 329 315 302 295 286 285 290 286 268
249 153 112 116 216 31 353 54 55 64 103 103 104 131 132 125 122 116 113 106 89 74 79 84 81 79 68 54 56 64 56 49 36 344 311 300 295 292 286 275 265 265 266 269
198 134 128 81 71 83 20 61 108 90 88 88 74 102 124 123 123 125 116 105 101 95 85 81 83 79 67 57 51 34 21 14 0 341 328 323 314 307 300 287 273 274 253 238
243 162 167 203 190 144 147 146 135 118 114 111 114 104 105 121 124 118 110 108 106 101 94 82 73 73 64 63 50 31 22 29 29 17 359 338 329 325 319 312 312 266 262 277